Wind_Speed
5 6 7 9 10 10 9 9 8 8 8 8 9 8 9 10 10 11 11 12 12 12 11 10 10 9 10 10 10 10 10 10 9 9 9 10 10 10 11 12 13 14 15 15
5 6 7 8 9 9 8 8 7 7 7 8 8 8 8 9 9 10 11 11 11 11 10 10 9 10 9 10 10 11 10 10 9 9 10 10 11 10 11 12 13 14 15 16
6 6 7 8 8 8 8 8 7 6 7 7 7 7 7 7 8 9 9 10 10 10 10 10 10 10 10 10 10 10 10 10 9 10 10 10 10 11 12 13 14 14 15 16
6 7 7 7 7 8 8 7 7 7 7 6 6 5 5 6 6 7 8 8 9 9 10 10 9 10 10 10 10 10 10 10 10 10 10 10 11 11 12 13 14 15 15 16
7 6 7 7 7 7 7 8 8 8 7 6 5 5 4 4 5 5 6 7 8 8 8 9 9 9 9 10 10 10 10 10 10 10 10 11 11 12 12 13 14 15 15 16
7 7 6 7 7 7 8 8 7 7 7 6 6 5 4 4 4 4 5 6 6 6 7 8 8 9 9 9 10 10 10 10 10 10 11 11 11 12 13 13 14 15 15 16
7 6 6 6 7 7 7 8 7 7 7 6 5 5 5 5 5 4 4 5 5 5 6 7 7 8 9 9 10 10 10 11 10 10 11 11 11 12 13 14 14 15 15 16
7 6 6 6 7 7 7 7 8 8 7 6 5 5 5 4 4 4 4 4 5 5 5 6 7 7 8 9 9 9 10 11 11 11 11 11 12 13 13 14 14 15 15 15
7 6 6 6 6 6 6 6 7 7 6 5 4 4 4 4 3 3 3 4 4 5 5 6 7 7 8 9 9 10 10 11 11 12 11 11 12 13 13 14 14 15 15 15
6 6 5 6 5 6 6 7 7 6 6 5 4 3 3 3 3 3 3 4 4 5 5 6 6 7 8 9 9 10 11 11 12 12 12 12 12 13 13 13 14 14 14 14
5 5 4 4 4 5 6 6 5 5 5 5 4 4 3 3 3 3 4 4 5 5 7 7 7 8 8 9 10 10 11 11 11 12 13 13 13 13 13 13 14 14 14 14
4 4 3 3 4 4 4 5 4 4 4 5 5 4 4 4 4 4 5 5 6 7 7 8 8 8 9 9 10 10 11 11 12 12 13 13 14 14 14 13 13 13 14 14
3 3 3 3 3 4 4 4 4 4 4 5 5 5 5 5 5 6 6 7 7 8 9 9 10 10 10 11 11 11 11 12 12 12 13 13 14 14 14 14 14 14 14 14
3 3 3 4 4 4 4 4 3 4 5 6 6 7 6 6 7 7 7 8 8 9 9 10 11 12 13 13 13 13 13 13 13 13 13 13 13 14 14 14 14 14 14 14
4 4 4 4 5 5 5 5 5 5 6 7 7 7 7 8 8 8 8 8 9 10 11 12 13 14 14 14 14 14 14 14 14 14 14 13 13 14 14 14 14 14 14 14
6 6 6 6 6 6 6 6 7 7 8 8 8 8 8 8 9 9 9 10 11 11 12 13 14 15 15 15 15 15 15 15 16 15 15 15 15 15 15 15 14 14 14 14
8 8 8 8 9 9 8 9 9 9 9 10 10 10 10 10 10 11 11 12 13 14 15 15 16 16 16 16 17 17 16 17 17 17 17 17 17 16 15 15 15 15 15 14
10 10 10 10 10 11 10 10 11 11 11 11 12 12 12 12 12 13 14 15 15 16 16 17 17 17 17 18 18 18 18 18 18 18 19 19 18 18 17 17 17 16 16 15
12 11 11 11 12 12 11 11 12 12 13 13 13 14 14 14 15 16 16 17 17 18 18 18 18 19 19 19 20 20 20 20 20 21 21 21 21 20 20 19 18 18 17 17
14 14 14 14 14 15 14 13 14 15 14 14 15 16 16 17 17 18 18 19 20 20 20 20 20 20 21 21 21 22 22 23 23 23 23 23 23 23 22 21 21 20 19 19
16 16 16 16 17 17 15 15 16 16 16 17 17 18 18 19 20 20 21 22 22 23 23 23 23 23 23 23 24 24 24 25 25 25 25 25 25 25 24 24 23 22 22 21
19 18 18 18 18 18 17 17 18 18 18 19 19 20 21 22 22 23 23 23 24 24 25 25 25 25 26 26 26 26 27 27 28 28 28 28 27 27 26 25 25 25 24 23
21 21 20 20 20 20 19 19 20 20 20 20 21 22 23 24 25 25 25 25 26 26 27 27 27 28 28 28 29 29 29 29 28 29 29 29 29 29 28 27 27 27 26 26
23 23 23 22 22 22 22 22 22 22 22 23 24 24 25 26 26 27 28 28 29 29 29 30 30 30 31 31 31 31 31 30 30 30 30 30 31 31 30 30 29 29 29 28
24 24 25 25 25 26 26 25 25 25 25 26 26 27 28 28 28 29 29 30 30 31 32 32 32 32 33 33 33 33 33 33 33 33 33 33 33 33 34 33 32 32 32 31
27 27 28 28 28 28 28 28 28 28 28 28 29 29 30 30 30 31 31 32 32 33 33 34 34 34 33 34 34 35 35 35 35 35 35 35 36 36 36 36 35 35 35 34
Wind_Direction
170 177 181 186 192 194 197 199 205 203 198 199 203 208 209 214 219 217 214 215 221 228 233 234 239 244 245 250 257 263 266 268 273 283 294 304 311 315 319 322 324 326 327 327
155 169 175 181 186 188 189 191 187 190 192 195 199 204 209 217 217 211 211 216 225 229 231 235 239 244 248 252 258 264 267 268 273 281 294 303 308 315 319 322 325 328 329 329
143 158 166 173 175 181 182 181 176 175 179 184 192 202 210 208 209 209 214 220 225 229 232 241 245 248 254 257 260 263 265 268 275 282 291 300 308 314 319 323 326 329 330 331
133 145 154 161 164 164 168 173 168 164 165 173 179 191 198 204 211 212 214 219 225 231 240 247 250 254 257 259 262 265 265 269 275 282 290 298 306 312 317 321 326 328 330 332
121 136 146 151 151 149 155 159 162 160 161 170 173 174 176 190 205 205 214 220 228 237 244 251 253 258 261 263 264 266 268 270 276 282 289 297 302 309 315 319 324 327 329 331
108 117 130 137 141 146 150 153 156 160 159 165 168 164 175 181 180 186 203 215 228 242 249 251 259 264 263 264 265 264 268 272 277 285 291 296 302 308 313 317 322 325 328 330
99 105 120 133 139 145 145 144 147 154 160 173 172 173 175 172 173 183 201 215 230 243 252 261 267 271 271 269 267 265 268 272 277 285 292 298 303 308 312 316 320 324 327 330
101 106 114 123 131 135 144 149 155 161 166 170 177 183 178 174 181 193 201 212 231 245 256 266 273 275 276 276 274 273 276 276 279 286 292 298 304 307 310 314 319 322 326 329
109 113 116 120 126 135 146 154 155 161 165 172 179 181 187 194 201 216 224 239 248 259 266 270 275 278 279 281 279 279 280 282 284 289 294 298 302 306 309 313 317 321 324 327
113 120 120 125 127 132 145 146 148 153 163 174 174 186 202 209 232 251 258 267 270 270 272 277 280 281 282 284 284 282 282 284 285 290 295 297 301 305 308 312 317 320 323 326
123 122 128 136 136 142 147 150 154 163 173 175 192 206 219 238 257 266 269 274 273 275 280 283 284 285 288 288 287 287 285 285 286 289 294 297 299 302 306 309 315 320 322 327
139 134 136 143 152 160 166 166 171 182 191 194 210 226 235 249 261 269 275 277 274 277 282 285 284 287 288 290 290 288 286 287 289 290 292 297 299 300 303 306 310 314 318 323
160 154 152 160 169 174 180 183 189 198 208 213 228 245 251 257 268 274 279 285 285 282 281 283 286 286 288 290 290 291 288 286 288 292 294 297 300 301 302 303 307 311 316 320
186 182 184 195 201 198 204 210 212 211 215 227 239 251 258 267 276 279 280 283 285 285 281 282 285 285 286 288 289 291 291 290 289 291 295 298 300 301 303 305 308 310 313 317
209 209 213 217 220 224 230 238 239 230 226 234 248 256 260 268 275 278 279 280 281 284 284 282 283 286 287 287 289 290 290 290 290 290 292 295 297 298 301 304 306 308 310 312
225 229 234 241 247 248 246 246 246 246 243 245 254 261 266 269 273 275 278 280 283 285 286 285 285 286 286 287 289 290 290 290 290 290 290 290 293 294 297 300 302 304 306 308
241 245 247 252 257 257 254 250 252 253 253 254 257 264 269 273 276 278 281 283 286 288 288 288 288 287 286 285 287 289 290 290 289 289 289 288 289 290 292 295 298 300 302 303
249 250 253 254 259 262 261 256 256 257 257 257 260 264 269 274 277 280 282 284 285 286 286 286 285 284 284 284 285 286 286 288 288 287 287 288 287 288 288 290 292 294 296 298
252 254 255 257 259 262 260 258 260 262 262 264 268 270 272 275 277 280 282 283 284 284 284 284 284 283 284 284 285 285 285 286 286 287 287 287 287 286 287 286 286 288 291 293
254 256 258 260 262 263 262 260 263 266 267 269 272 274 275 276 277 280 282 283 284 283 283 283 283 284 283 283 284 285 285 284 284 285 286 286 286 285 285 284 283 284 286 288
254 257 258 260 262 264 265 263 263 265 269 269 271 274 274 276 279 281 283 284 284 283 283 283 283 284 284 283 283 283 284 284 284 284 283 283 284 283 283 283 281 281 282 283
255 257 258 260 262 264 265 264 265 268 270 272 273 274 275 276 278 281 283 283 283 284 284 284 284 284 284 284 283 283 283 283 283 282 281 281 281 280 280 281 279 277 278 279
255 258 259 261 262 264 265 267 269 271 273 274 275 277 278 279 280 281 282 283 283 283 283 284 284 284 284 284 284 283 283 283 282 281 280 280 279 278 277 278 277 276 276 276
256 258 260 261 263 264 266 267 270 272 274 276 277 278 280 281 282 282 283 283 283 282 283 284 284 284 285 285 285 284 284 283 281 279 279 278 278 277 275 274 274 274 274 274
258 260 262 263 264 265 267 269 271 272 274 276 278 279 279 280 282 283 283 283 283 283 284 284 284 284 284 284 283 284 283 283 281 279 278 277 277 276 275 274 274 273 272 272
259 261 262 264 265 267 269 270 272 274 276 278 279 279 280 281 282 283 284 283 283 284 284 285 284 284 283 283 283 283 283 282 281 279 278 277 277 275 274 273 273 273 271 271
Height
5811 5814 5815 5817 5819 5821 5823 5825 5827 5828 5830 5832 5833 5835 5837 5838 5840 5841 5843 5844 5846 5848 5849 5850 5850 5851 5851 5852 5852 5852 5852 5851 5851 5850 5849 5847 5846 5844 5842 5840 5837 5834 5832 5829
5813 5814 5815 5817 5818 5820 5822 5824 5826 5828 5829 5831 5832 5834 5836 5837 5838 5840 5841 5843 5845 5846 5847 5848 5849 5850 5850 5850 5850 5850 5850 5850 5849 5848 5847 5846 5844 5842 5840 5838 5835 5832 5829 5826
5813 5815 5815 5817 5818 5820 5822 5824 5826 5827 5829 5830 5832 5834 5835 5836 5837 5839 5840 5842 5843 5845 5846 5847 5847 5848 5848 5848 5848 5848 5848 5847 5847 5846 5845 5843 5842 5840 5838 5836 5833 5830 5827 5824
5813 5814 5816 5817 5819 5820 5822 5824 5826 5827 5829 5831 5833 5835 5835 5835 5837 5838 5839 5840 5842 5843 5844 5845 5846 5846 5846 5846 5846 5846 5846 5845 5845 5844 5843 5841 5840 5838 5836 5834 5831 5828 5825 5822
5815 5815 5816 5818 5819 5820 5822 5824 5826 5828 5829 5831 5833 5835 5836 5835 5836 5837 5838 5839 5841 5842 5842 5843 5844 5844 5844 5844 5844 5844 5844 5843 5843 5842 5841 5839 5838 5836 5834 5831 5829 5826 5823 5820
5816 5817 5818 5819 5820 5821 5823 5825 5827 5828 5830 5832 5833 5835 5835 5835 5836 5837 5837 5838 5839 5840 5841 5841 5842 5842 5842 5842 5842 5842 5842 5841 5841 5840 5838 5837 5835 5834 5832 5829 5827 5824 5821 5818
5818 5819 5819 5820 5821 5822 5824 5826 5828 5830 5831 5832 5833 5834 5835 5835 5836 5837 5837 5838 5838 5839 5840 5840 5841 5841 5841 5841 5840 5840 5839 5839 5838 5837 5836 5835 5833 5831 5830 5827 5825 5822 5819 5816
5820 5821 5821 5821 5822 5824 5825 5827 5830 5831 5832 5832 5833 5834 5835 5835 5836 5836 5836 5837 5837 5838 5838 5839 5839 5839 5839 5839 5838 5838 5837 5837 5836 5835 5834 5833 5831 5829 5827 5825 5823 5820 5817 5814
5822 5822 5822 5823 5823 5825 5825 5827 5829 5830 5831 5833 5833 5834 5834 5835 5835 5835 5836 5836 5836 5837 5837 5837 5837 5837 5837 5837 5836 5836 5835 5834 5833 5832 5831 5830 5829 5827 5825 5823 5820 5818 5815 5812
5823 5823 5824 5824 5825 5825 5827 5827 5829 5830 5831 5833 5833 5833 5834 5834 5834 5834 5835 5835 5835 5835 5835 5835 5835 5835 5835 5835 5834 5833 5833 5832 5831 5830 5829 5828 5826 5825 5823 5821 5818 5816 5813 5810
5823 5825 5825 5825 5825 5826 5827 5828 5829 5830 5831 5833 5833 5835 5833 5833 5833 5833 5834 5834 5834 5834 5834 5834 5834 5833 5833 5832 5832 5831 5830 5829 5829 5828 5827 5825 5824 5822 5820 5818 5816 5814 5811 5808
5824 5825 5825 5826 5826 5826 5827 5828 5829 5830 5831 5831 5832 5836 5832 5832 5832 5832 5832 5832 5832 5832 5832 5832 5832 5831 5831 5830 5829 5829 5828 5827 5826 5825 5824 5823 5821 5819 5818 5816 5814 5811 5809 5806
5823 5824 5825 5825 5827 5827 5826 5827 5828 5829 5829 5830 5831 5834 5831 5831 5831 5831 5831 5831 5830 5830 5830 5830 5829 5829 5828 5827 5827 5826 5825 5824 5823 5822 5821 5820 5818 5817 5815 5813 5811 5809 5807 5804
5822 5823 5825 5826 5825 5825 5825 5826 5826 5827 5828 5828 5829 5830 5829 5829 5829 5829 5829 5829 5828 5828 5827 5827 5826 5826 5825 5824 5823 5823 5822 5821 5820 5819 5818 5816 5815 5814 5812 5810 5808 5806 5804 5802
5821 5822 5822 5822 5823 5823 5824 5824 5825 5825 5826 5827 5827 5827 5827 5827 5827 5827 5826 5826 5826 5825 5824 5824 5823 5822 5821 5820 5819 5819 5818 5817 5816 5815 5814 5813 5812 5810 5809 5807 5805 5803 5801 5800
5819 5820 5820 5821 5821 5821 5821 5822 5822 5823 5823 5824 5824 5824 5824 5824 5824 5824 5823 5823 5823 5822 5821 5820 5819 5818 5817 5816 5815 5814 5814 5813 5812 5811 5810 5809 5808 5807 5805 5804 5802 5800 5799 5797
5816 5817 5818 5818 5818 5819 5819 5819 5819 5820 5820 5821 5821 5822 5821 5821 5820 5820 5820 5819 5818 5817 5816 5815 5814 5813 5812 5812 5811 5810 5809 5808 5807 5806 5806 5805 5804 5803 5801 5800 5799 5797 5796 5794
5813 5814 5814 5815 5816 5815 5818 5816 5816 5816 5816 5817 5817 5817 5817 5817 5816 5815 5815 5814 5814 5813 5812 5811 5810 5809 5808 5807 5806 5805 5804 5803 5802 5801 5801 5800 5799 5798 5797 5796 5795 5793 5792 5790
5810 5810 5811 5811 5811 5811 5812 5811 5811 5812 5812 5812 5812 5812 5812 5812 5811 5811 5810 5809 5808 5807 5806 5805 5804 5803 5802 5802 5801 5800 5799 5798 5797 5796 5795 5794 5793 5793 5792 5791 5790 5789 5787 5786
5805 5806 5807 5806 5806 5807 5808 5807 5807 5808 5807 5807 5807 5807 5806 5806 5806 5806 5804 5803 5802 5801 5800 5799 5798 5797 5797 5796 5795 5794 5793 5792 5791 5790 5789 5788 5787 5786 5786 5785 5784 5783 5782 5781
5800 5800 5801 5801 5801 5801 5802 5802 5802 5803 5803 5802 5801 5801 5801 5800 5800 5799 5798 5797 5796 5795 5794 5793 5792 5791 5790 5789 5788 5787 5786 5785 5784 5782 5782 5781 5780 5780 5779 5778 5778 5777 5776 5776
5794 5795 5795 5795 5796 5798 5796 5796 5797 5797 5796 5795 5795 5795 5794 5794 5793 5792 5791 5790 5789 5787 5786 5785 5784 5783 5782 5781 5780 5779 5778 5777 5775 5774 5773 5773 5772 5772 5771 5771 5770 5770 5769 5769
5787 5789 5789 5790 5791 5790 5790 5790 5790 5789 5789 5789 5788 5788 5787 5787 5786 5785 5783 5782 5781 5779 5778 5777 5776 5775 5774 5772 5771 5770 5769 5767 5766 5765 5765 5764 5763 5763 5763 5762 5762 5762 5761 5761
5780 5781 5781 5782 5782 5782 5782 5782 5782 5782 5782 5782 5781 5781 5780 5779 5778 5776 5775 5774 5772 5771 5769 5768 5767 5765 5764 5762 5761 5760 5759 5758 5757 5756 5755 5754 5754 5753 5753 5752 5752 5752 5752 5752
5773 5773 5773 5773 5774 5774 5774 5774 5774 5775 5774 5774 5773 5772 5771 5770 5769 5768 5766 5765 5763 5762 5760 5758 5757 5755 5754 5752 5751 5750 5749 5747 5746 5745 5745 5744 5743 5743 5742 5742 5742 5742 5742 5742
5764 5764 5764 5764 5765 5765 5766 5765 5765 5765 5765 5764 5764 5763 5761 5760 5759 5758 5756 5755 5753 5752 5750 5748 5746 5745 5743 5741 5740 5738 5737 5736 5735 5734 5733 5732 5731 5731 5730 5730 5730 5730 5730 5731